www.pogodaiklimat.ru

Погода и климат >> Архив погоды >> Польша >> Эльблонг


ПОГОДА в Эльблонге

  • Прогноз погоды в Эльблонге
  • Монитор погоды в Эльблонге

АРХИВ ПОГОДЫ в Эльблонге

Время (UTC), дата Ветер
(напр.,м/с)
 
Видим.   Явления Облачность Т
(С)
Тd
(С)
f
(%)
Тe
(С)
Тes
(С)
Комфортность P
(гПа)
Po
(гПа)
Тmin
(С)
Tmax
(С)
R
(мм)
R24
(мм)
S
(см)
01 14.05 С 3 6000 м ливневой дождь 9/9 300 м
[Cb calv]
+5.5 +4.8 95 +2 +2 1030.6 1007.5
02 14.05 СВ 6 8000 м слаб. ливневой дождь 9/9 300 м
[Cb calv]
+6.0 +5.1 94 +1 +1 1030.4 1007.3
03 14.05 СВ 6 15 км в посл. час ливневой дождь 9/9 300 м
[Cb calv]
+5.5 +4.5 93 0 0 1030.5 1007.4
04 14.05 С 5 15 км 9/9 300 м
[Cu med, cong]
+5.1 +2.3 82 +1 +1 1030.7 1007.6
05 14.05 С 5
{10}
20 км 9/9 300 м
[Cu med, cong]
+5.7 +3.2 84 +1 +1 1031.0 1007.9
06 14.05 С 6
{10}
20 км {ливн. осадки} 9/8 600 м
[Cu med, cong Ac trans]
+5.7 +2.7 81 +1 +1 1031.4 1008.3 +5.0 +6.0 7
07 14.05 С 6-11
{12}
20 км 9/9 600 м
[Cu med, cong]
+6.0 +2.8 80 +1 +2 1031.6 1008.5
08 14.05 С 7-13
{13}
20 км 9/9 600 м
[Cu med, cong]
+6.1 +2.2 76 +1 +1 1031.4 1008.3
09 14.05 С 7-12
{13}
20 км 9/6 600 м
[Cu med, cong Ac trans]
+6.3 +1.8 73 +1 +2 1030.9 1007.9
10 14.05 С 7-13
{14}
20 км 9/6 600 м
[Cu med, cong Cs]
+6.9 +2.2 72 +2 +4 1030.9 1007.9
11 14.05 С 6-12
{13}
20 км 9/5 600 м
[Cu med, cong Cs]
+7.4 +2.7 72 +3 +6 1030.4 1007.5
12 14.05 С 7-12
{14}
20 км 9/5 600 м
[Cu med, cong Cs]
+7.2 +2.3 71 +3 +4 1030.3 1007.3
13 14.05 С 7
{13}
20 км 9/5 600 м
[Cu med, cong Ac As]
+7.0 +3.1 76 +2 +3 1029.9 1006.9
14 14.05 С 5 20 км 9/5 600 м
[Cu med, cong Ac As]
+7.2 +3.4 77 +3 +4 1029.3 1006.4
15 14.05 С 5-10
{13}
20 км 9/3 600 м
[Cu med, cong Ac As]
+7.0 +3.2 77 +3 +4 1029.0 1006.1
16 14.05 С 5-10
{11}
20 км 9/0
[Ac As]
+6.6 +3.0 78 +3 +3 1028.8 1005.8
17 14.05 С 6-11
{11}
20 км в посл. час дождь 9/1 600 м
[Sc Ac As]
+6.2 +2.6 78 +2 +2 1028.5 1005.5
18 14.05 С 4
{13}
20 км {дождь} 9/4 600 м
[Sc Ac As]
+6.2 +2.8 79 +3 +3 1028.6 1005.6 +5.7 +7.7 0.0
19 14.05 С 4
{10}
20 км 9/9 600 м
[Sc]
+6.2 +3.2 81 +2 +2 1028.6 1005.6
20 14.05 С 4 15 км слаб. дождь 10/10 300 м
[Sc]
+6.4 +3.2 80 +3 +3 1028.2 1005.2
21 14.05 С 4
{10}
15 км в посл. час дождь 10/10 300 м
[Sc]
+6.5 +3.6 82 +3 +3 1027.8 1004.8
22 14.05 С 3 20 км 10/10 300 м
[Sc]
+6.7 +4.4 85 +4 +4 1027.2 1004.3
23 14.05 С 3 20 км 10/10 300 м
[Sc]
+6.8 +4.6 86 +4 +4 1026.8 1003.9
00 15.05 СВ 4
{10}
20 км {дождь} 10/10 300 м
[Sc]
+7.1 +4.7 85 +4 +4 1026.8 1003.9 0.0
01 15.05 С 4 15 км слаб. дождь 10/10 300 м
[Sc]
+6.9 +4.6 85 +3 +3 1026.3 1003.4
02 15.05 СВ 4 20 км в посл. час дождь 10/10 300 м
[Sc]
+6.8 +4.3 84 +3 +3 1025.8 1002.9
03 15.05 СВ 5 20 км {дождь} 10/10 600 м
[Sc]
+7.0 +4.3 83 +3 +3 1025.5 1002.6
04 15.05 СВ 5 20 км 10/10 600 м
[Sc]
+6.9 +3.9 81 +3 +3 1025.2 1002.3
05 15.05 СВ 5 20 км 10/10 600 м
[Sc]
+7.1 +3.7 79 +3 +3 1025.0 1002.1
06 15.05 СВ 5 20 км {дождь} 10/10 600 м
[Sc]
+7.7 +4.3 79 +4 +4 1025.0 1002.2 +6.1 +7.7 0.0
07 15.05 С 5 20 км 9/9 600 м
[Sc]
+8.8 +5.2 78 +5 +6 1024.7 1002.0
08 15.05 С 6
{11}
20 км 9/6 600 м
[Sc Cs]
+9.0 +5.4 78 +5 +7 1024.4 1001.7
09 15.05 С 6
{11}
20 км 8/3 600 м
[Cu med, cong Ac trans Ci sp]
+10.4 +5.4 71 +7 +10 1024.0 1001.4
10 15.05 С 8 20 км 9/3 600 м
[Cu hum Ac und Ci sp]
+10.1 +4.7 69 +6 +7 1023.5 1000.9
11 15.05 С 8
{13}
20 км 9/1 600 м
[Sc Ac trans Cs]
+11.1 +5.4 68 +8 +9 1023.1 1000.6
12 15.05 С 7-12
{13}
20 км 9/0
[Ac As]
+10.0 +4.4 68 +6 +8 1023.1 1000.5
13 15.05 С 6 8000 м слаб. дождь 10/5 600 м
[Sc As op]
+8.7 +5.8 82 +5 +5 1023.2 1000.5
14 15.05 С 6 6000 м дождь 10/8 300 м
[Sc As op]
+7.6 +5.9 89 +3 +3 1022.9 1000.1
15 15.05 С 5 8000 м слаб. дождь 10/8 300 м
[Sc As op]
+7.7 +6.0 89 +4 +4 1022.3 999.6
16 15.05 С 5 4000 м дождь 10/6 200 м
[Frnb As op]
+7.7 +6.2 90 +4 +4 1021.9 999.2
17 15.05 С 4
{9}
4000 м дождь 10/8 200 м
[Frnb As op]
+7.7 +6.6 93 +4 +4 1021.7 999.0
18 15.05 С 4
{9}
6000 м дождь 10/8 200 м
[Frnb As op]
+8.2 +7.1 93 +5 +5 1021.3 998.6 +7.5 +11.7 4
19 15.05 С 4 6000 м слаб. дождь 10/8 200 м
[Frnb As op]
+8.4 +7.5 94 +5 +5 1021.3 998.6
20 15.05 СВ 5 6000 м слаб. дождь 10/8 200 м
[Frnb As op]
+9.7 +8.6 93 +6 +6 1021.0 998.4
21 15.05 СВ 6 6000 м слаб. дождь 10/8 200 м
[Frnb As op]
+10.0 +8.9 93 +6 +6 1020.6 998.1
22 15.05 СВ 6 6000 м слаб. дождь 10/8 200 м
[Frnb As op]
+10.3 +9.1 92 +7 +7 1020.5 998.0
23 15.05 СВ 6 15 км в посл. час дождь 9/9 300 м
[Sc]
+10.2 +8.8 91 +7 +7 1019.4 996.9
00 16.05 СВ 5 20 км {дождь} 9/9 600 м
[Sc]
+9.7 +7.8 88 +6 +6 1018.9 996.4 4
01 16.05 СВ 5 20 км в посл. час ливневой дождь 9/9 600 м
[Cu med, cong]
+9.7 +8.0 89 +6 +6 1018.6 996.1
02 16.05 СВ 6 20 км в посл. час ливневой дождь 9/9 600 м
[Cb calv]
+9.7 +7.8 88 +6 +6 1018.1 995.6
03 16.05 СВ 6 20 км {ливн. осадки} 9/5 600 м
[Cu med, cong Ac trans Ci fib]
+9.5 +7.1 85 +6 +6 1017.8 995.3
04 16.05 СВ 5 20 км 9/4 600 м
[Cu med, cong Ac trans Ci fib]
+10.0 +7.1 82 +7 +7 1017.7 995.2
05 16.05 СВ 5 20 км 9/5 600 м
[Cu med, cong Ac trans Ci fib]
+11.1 +8.1 82 +8 +9 1017.3 994.9
06 16.05 СВ 5 20 км {ливн. осадки} 8/3 600 м
[Sc Ac trans Ci sp]
+12.1 +8.4 78 +10 +11 1017.2 994.9 +8.2 +12.6 4
07 16.05 В 6
{11}
20 км 5/0
[Ac trans Ci sp]
+15.2 +9.8 70 +14 +16 1016.9 994.9
08 16.05 СВ 6-11
{11}
20 км 6/3 600 м
[Cu med, cong Ac trans Ci sp]
+16.2 +10.3 68 +15 +17 1016.9 994.9
09 16.05 СВ 5
{11}
20 км 9/8 600 м
[Cu med, cong Ac trans]
+16.0 +11.0 72 +15 +16 1017.1 995.1
10 16.05 СВ 7-14
{14}
15 км в посл. час ливневой дождь 9/9 600 м
[Cb calv]
+14.9 +10.5 75 +13 +13 1017.1 995.0
11 16.05 СВ 6-11
{13}
8000 м слаб. ливневой дождь 9/9 300 м
[Cb calv]
+14.0 +11.3 84 +12 +13 1016.9 994.8
12 16.05 В 6
{14}
20 км в посл. час ливневой дождь 9/9 300 м
[Cb calv]
+13.5 +10.8 84 +11 +12 1017.0 994.8 0.2
13 16.05 В 6
{13}
20 км 9/9 300 м
[Cu med, cong]
+13.1 +11.0 87 +11 +11 1016.8 994.6
14 16.05 В 6
{13}
10 км в посл. час ливневой дождь 9/9 300 м
[Cb calv]
+13.4 +11.5 88 +11 +11 1016.7 994.5
15 16.05 СВ 5
{13}
2000 м слаб. ливневой дождь 9/9 300 м
[Cb calv]
+12.7 +11.9 95 +10 +11 1016.4 994.2
16 16.05 В 4 8000 м в посл. час ливневой дождь 9/9 300 м
[Cb calv]
+13.3 +12.5 95 +12 +12 1016.2 994.0
17 16.05 В 5 15 км 9/9 300 м
[Cb calv]
+13.8 +12.7 93 +12 +12 1016.2 994.1
18 16.05 В 4-9
{13}
15 км {ливн. осадки} 9/9 300 м
[Cb calv]
+13.6 +12.3 92 +12 +12 1016.6 994.4 +12.1 +16.5 1
19 16.05 В 4 15 км 9/9 600 м
[Cu med, cong]
+13.5 +12.4 93 +12 +12 1016.9 994.7
20 16.05 В 4 20 км 9/9 600 м
[Cu med, cong]
+13.7 +12.4 92 +12 +12 1016.9 994.7
21 16.05 В 4 20 км 9/9 600 м
[Sc]
+13.6 +12.3 92 +12 +12 1016.5 994.3
22 16.05 В 4 15 км слаб. дождь 10/8 600 м
[Sc As op]
+13.5 +12.4 93 +12 +12 1016.2 994.0
23 16.05 СВ 4 6000 м дождь 10/8 300 м
[Frnb As op]
+13.2 +12.6 96 +11 +11 1015.6 993.4
00 17.05 В 5 6000 м дождь 10/8 200 м
[Frnb As op]
+13.1 +12.5 96 +11 +11 1015.2 993.0 2
01 17.05 В 5 6000 м слаб. дождь 10/8 200 м
[Frnb As op]
+13.3 +12.8 97 +11 +11 1014.6 992.5
02 17.05 В 5 6000 м слаб. дождь 10/8 200 м
[Frnb As op]
+13.2 +12.7 97 +11 +11 1014.2 992.1
03 17.05 В 5 6000 м слаб. дождь 10/8 200 м
[Frnb As op]
+13.1 +12.5 96 +11 +11 1013.6 991.5
04 17.05 В 5 4000 м дождь 10/8 200 м
[Frnb As op]
+12.8 +12.2 96 +10 +10 1013.5 991.4
05 17.05 В 5 4000 м слаб. дождь 10/8 200 м
[Frnb As op]
+12.7 +12.1 96 +10 +10 1013.3 991.1
06 17.05 В 5
{11}
2000 м слаб. дождь 10/8 200 м
[Frnb As op]
+12.7 +12.1 96 +10 +10 1013.1 991.0 +12.7 +13.7 5
07 17.05 В 6 3000 м слаб. морось {дождь} 10/10 100 м
[St]
+12.9 +12.3 96 +10 +10 1013.1 991.0
08 17.05 В 5-11
{11}
4000 м в посл. час морось 9/9 200 м
[St]
+13.2 +12.6 96 +11 +12 1012.9 990.8
09 17.05 В 5
{11}
10 км {дождь, морось} 9/9 300 м
[Sc]
+13.8 +12.7 93 +12 +13 1013.1 991.0
10 17.05 В 5
{10}
10 км 9/9 300 м
[Sc]
+14.5 +13.2 92 +13 +14 1012.7 990.7
11 17.05 В 5 10 км 9/9 300 м
[Sc]
+14.9 +13.6 92 +13 +14 1013.0 991.0
12 17.05 В 4
{11}
10 км в посл. час ливневой дождь {морось} 9/9 300 м
[Cb calv]
+14.7 +13.6 93 +13 +14 1013.2 991.2 0.0
13 17.05 В 4 15 км 9/9 600 м
[Cu med, cong]
+16.1 +14.3 89 +15 +16 1012.6 990.7
14 17.05 В 5
{10}
15 км 9/9 600 м
[Cb calv]
+16.7 +14.2 85 +16 +16 1012.3 990.5
15 17.05 В 5-10
{10}
20 км 9/9 600 м
[Cb cap]
+17.7 +14.4 81 +17 +18 1012.5 990.7
16 17.05 ЮВ 4
{11}
15 км слаб. ливневой дождь 9/9 600 м
[Cb cap]
+16.4 +14.2 87 +16 +16 1012.9 991.0
17 17.05 В 1 20 км в посл. час ливневой дождь 9/8 600 м
[Cb cap Ci sp]
+16.2 +14.4 89 +17 +17 1013.1 991.2
18 17.05 В 2
{11}
20 км {ливн. осадки} 9/9 600 м
[Cb cap]
+16.0 +13.7 86 +16 +16 1013.0 991.1 +12.7 +17.8 0.1
19 17.05 В 2 20 км зарница 5/5 600 м
[Cb cap Ci sp]
+14.9 +13.6 92 +15 +15 1013.5 991.5
20 17.05 СВ 2 6000 м зарница 5/4 600 м
[Cb cap Ci sp]
+13.7 +13.1 96 +13 +13 1013.7 991.6
21 17.05 ЮВ 2 4000 м дымка 8/3 600 м
[Cb calv Cs]
+13.4 +12.9 97 +13 +13 1013.9 991.8
22 17.05 ЮВ 2 1600 м в посл. час туман 9/0
[Cs]
+13.4 +12.9 97 +13 +13 1014.1 992.0
23 17.05 ЮВ 2 100 м туман ?/? +13.1 +12.6 97 +12 +12 1014.1 992.0
00 18.05 ЮВ 2 100 м туман ?/? +13.3 +13.0 98 +12 +12 1013.9 991.8
01 18.05 ЮВ 2 200 м туман ?/? +13.0 +12.7 98 +12 +12 1014.1 992.0
02 18.05 ЮВ 2 100 м туман ?/? +12.2 +11.9 98 +11 +11 1014.0 991.8
03 18.05 ЮВ 1 300 м туман 9/0
[Ac trans Cs]
+11.7 +11.4 98 +11 +11 1013.9 991.7
04 18.05 В 2 700 м туман 9/0
[Ac trans Cs]
+13.3 +13.0 98 +12 +13 1013.8 991.7
05 18.05 СВ 1 100 м туман ?/? +12.8 +12.5 98 +13 +13 1014.0 991.8
06 18.05 В 2 <100 м туман ?/? +13.7 +13.4 98 +13 +13 1013.6 991.5 +11.7 +16.0
07 18.05 СВ 1 200 м туман ?/? +14.5 +14.2 98 +15 +15 1013.2 991.2
08 18.05 В 1 6000 м в посл. час туман 9/0
[Ac As]
+16.1 +15.5 96 +17 +21 1012.7 990.8
09 18.05 СВ 3 200 м туман ?/? +15.3 +14.8 97 +15 +15 1012.8 990.9
10 18.05 В 5-10
{10}
500 м гроза, ливневой дождь {туман} 9/9 300 м
[Cb cap]
+15.6 +15.1 97 +14 +15 1012.8 990.9
11 18.05 В 2
{9}
8000 м в посл. час гроза {ливн. осадки, туман} 9/9 300 м
[Cb calv]
+15.8 +15.2 96 +16 +17 1011.6 989.7
12 18.05 В 3
{10}
10 км слаб. ливневой дождь {гроза, туман} 9/9 300 м
[Cb calv]
+16.5 +15.5 94 +16 +17 1012.0 990.2 6
13 18.05 ЮВ 3 20 км в посл. час ливневой дождь 9/9 600 м
[Cu med, cong]
+17.6 +15.9 90 +18 +19 1011.7 990.0
14 18.05 ЮВ 3 20 км 8/6 600 м
[Cu med, cong Ci sp]
+18.9 +15.9 83 +20 +23 1011.0 989.4
15 18.05 Ю 2 20 км {ливн. осадки} 8/6 600 м
[Cb calv Ci sp]
+18.7 +15.8 83 +20 +22 1011.1 989.4
16 18.05 ЮВ 2 20 км 9/4 600 м
[Cb calv Ac trans Cs]
+19.8 +15.4 76 +23 +24 комфорт 1011.2 989.6
17 18.05 ЮВ 2 20 км 9/5 600 м
[Cb calv Ac trans Cs]
+19.9 +14.9 73 +23 +23 комфорт 1010.9 989.3
18 18.05 ЮВ 1 20 км {ливн. осадки} 8/4 600 м
[Cb calv Ac trans Cs]
+19.2 +15.5 79 +22 +22 комфорт 1010.8 989.2 +13.7 +20.1 6
19 18.05 СВ 1 15 км 9/8 300 м
[Cu med, cong Cs]
+18.0 +15.4 85 +19 +19 1011.0 989.3
20 18.05 В 3 15 км 8/5 300 м
[Sc Cs]
+17.1 +14.9 87 +17 +17 1011.3 989.5
21 18.05 В 2 15 км 9/3 300 м
[Sc Cs]
+16.1 +13.8 86 +16 +16 1011.1 989.3
22 18.05 В 2 20 км 9/6 300 м
[Cu med, cong Cs]
+15.8 +12.7 82 +16 +16 1011.2 989.3
23 18.05 В 2 20 км 9/3 300 м
[Cu med, cong Ac trans Cs]
+15.1 +12.8 86 +15 +15 1010.6 988.7
00 19.05 Ю 2 20 км 9/8 300 м
[Cu med, cong Cs]
+15.3 +13.3 88 +15 +15 1010.3 988.4
01 19.05 В 1 15 км 9/0
[Cs]
+14.4 +12.9 91 +15 +15 1010.8 988.8
02 19.05 В 2 10 км 9/0
[Cs]
+14.3 +13.2 93 +14 +14 1010.5 988.5
03 19.05 В 3 8000 м слаб. дождь 10/10 300 м
[Sc]
+14.3 +13.0 92 +13 +13 1010.7 988.7
04 19.05 ЮВ 2 15 км в посл. час дождь 10/10 300 м
[Sc]
+14.2 +13.1 93 +14 +14 1010.7 988.7
05 19.05 ЮВ 2 10 км слаб. дождь 10/5 300 м
[Sc As op]
+14.5 +13.5 94 +14 +14 1010.6 988.6
06 19.05 Ю 3 15 км в посл. час дождь 10/6 300 м
[Sc As op]
+15.8 +14.3 91 +15 +16 1010.1 988.3 +14.2 +19.2 0.1
07 19.05 В 2 15 км в посл. час дождь 9/6 300 м
[Sc Ac As]
+16.4 +15.1 92 +16 +18 1010.3 988.5
08 19.05 В 3 15 км слаб. ливневой дождь 9/9 300 м
[Cb calv]
+16.3 +15.0 92 +16 +17 1010.5 988.7
09 19.05 В 2 20 км в посл. час ливневой дождь 9/5 600 м
[Cu med, cong Ac As]
+17.1 +15.3 89 +17 +20 1010.4 988.6
10 19.05 ЮВ 3 20 км 9/5 600 м
[Cu med, cong Ac As]
+18.7 +15.0 79 +20 +23 1010.1 988.5
11 19.05 В 3 20 км 9/6 600 м
[Cu med, cong Ac As]
+19.3 +15.8 80 +21 +24 комфорт 1010.1 988.5
12 19.05 В 2 15 км слаб. ливневой дождь 9/8 600 м
[Cb calv Ac As]
+19.1 +16.5 85 +21 +23 комфорт 1009.7 988.1 0.1
13 19.05 В 3 15 км слаб. ливневой дождь 9/9 300 м
[Cb calv]
+18.2 +16.2 88 +19 +20 1009.5 987.8
14 19.05 В 3 8000 м ливневой дождь 9/9 300 м
[Cb calv]
+17.3 +15.8 91 +17 +18 1009.1 987.4
15 19.05 В 3 15 км слаб. ливневой дождь 9/9 300 м
[Cb calv]
+17.3 +16.2 93 +17 +18 1008.9 987.2
16 19.05 ЮВ 4 20 км в посл. час ливневой дождь 9/6 600 м
[Cu med, cong Ac As]
+17.8 +15.6 87 +18 +18 1008.6 986.9
17 19.05 В 3 20 км 9/4 600 м
[Cu med, cong Ac As]
+17.4 +15.4 88 +17 +18 1008.9 987.2
18 19.05 ЮВ 2 20 км {ливн. осадки} 8/3 600 м
[Cu med, cong Ac trans]
+17.1 +15.1 88 +17 +17 1008.6 986.9 +15.8 +19.3 7
19 19.05 В 2 20 км 5/0
[Ac trans]
+16.9 +15.1 89 +17 +17 1008.7 987.0
20 19.05 В 2 20 км 8/0
[Ac und]
+16.7 +15.1 90 +17 +17 1009.0 987.2
21 19.05 ЮВ 2 20 км 8/0
[Ac trans]
+16.1 +14.5 90 +16 +16 1009.0 987.2
22 19.05 В 2 20 км 3/0
[Ac trans]
+15.6 +14.3 92 +15 +15 1009.0 987.2
23 19.05 В 2 15 км 8/6 600 м
[Cu med, cong Ac trans]
+15.0 +13.9 93 +15 +15 1009.1 987.2
00 20.05 В 2 15 км 4/0
[Ac trans Ci fib]
+14.9 +13.9 94 +15 +15 1008.9 987.0
01 20.05 В 2 10 км 4/0
[Ac trans Ci fib]
+14.4 +13.6 95 +14 +14 1008.8 986.9
02 20.05 В 2 8000 м дымка 1/0
[Ac trans]
+14.0 +13.4 96 +13 +13 1008.4 986.5
03 20.05 В 2 6000 м дымка 1/0
[Ac trans]
+13.7 +13.1 96 +13 +13 1008.6 986.6
04 20.05 В 3 10 км 3/0
[Ac trans Ci fib]
+14.6 +13.5 93 +14 +14 1008.3 986.4
05 20.05 В 3 10 км 3/0
[Ci fib]
+15.7 +14.1 90 +15 +17 1007.9 986.1
06 20.05 В 4 15 км 5/0
[Cs]
+17.3 +14.8 85 +17 +20 1007.5 985.8 +13.7 +17.4
07 20.05 В 4 15 км 8/0
[Cs]
+18.6 +15.7 83 +19 +24 1007.2 985.6
08 20.05 В 3 20 км 9/0
[Cs]
+20.4 +16.4 78 +24 +31 комфорт 1006.7 985.3
09 20.05 В 4 20 км 9/1 600 м
[Cu med, cong Cs]
+21.7 +17.1 75 +26 +33 душно 1006.3 985.0
10 20.05 В 5-10
{10}
20 км 8/3 600 м
[Cu med, cong Cs]
+23.2 +17.4 70 +29 +33 душно 1006.0 984.8
11 20.05 В 5
{10}
20 км 6/5 600 м
[Cu med, cong Ci sp]
+24.0 +16.8 64 +28 +32 душно 1005.7 984.5
12 20.05 В 5-10
{10}
20 км 8/4 1000 м
[Cu med, cong Ac trans Ci sp]
+24.8 +16.2 59 +28 +31 жарко 1005.5 984.4
13 20.05 В 5
{10}
20 км 6/3 1000 м
[Cu med, cong Ac trans Ci sp]
+25.0 +16.4 59 +28 +32 жарко 1004.7 983.6
14 20.05 В 6
{9}
20 км 6/5 1000 м
[Cb calv Ci sp]
+25.4 +15.7 55 +29 +30 душно 1004.6 983.6
15 20.05 В 6-11
{11}
20 км гроза без осадков 8/8 600 м
[Cb cap]
+25.0 +15.3 55 +28 +28 жарко 1004.4 983.3
16 20.05 ЮВ 5-10
{13}
8000 м гроза, ливневой дождь 9/9 300 м
[Cb cap]
+18.4 +14.7 79 +19 +19 1005.4 983.8
17 20.05 В 4 10 км слаб. ливневой дождь, в посл. час гроза 9/9 300 м
[Cb cap]
+17.9 +15.5 86 +18 +18 1005.0 983.4
18 20.05 В 3
{13}
15 км в посл. час ливневой дождь {гроза} 9/4 600 м
[Cb calv Ac As]
+17.5 +15.1 86 +18 +18 1005.7 984.1 +17.3 +25.8 3
19 20.05 В 4 15 км 9/0
[Ac As]
+17.2 +15.2 88 +17 +17 1006.2 984.5
20 20.05 ЮВ 4 20 км 9/3 600 м
[Cu med, cong Ac As]
+16.8 +15.0 89 +16 +16 1005.9 984.2
21 20.05 В 4 20 км 9/5 600 м
[Cu med, cong Ac As]
+16.8 +14.8 88 +16 +16 1005.6 983.9
22 20.05 В 3 20 км 6/4 600 м
[Cu med, cong Ac trans]
+15.8 +14.5 92 +15 +15 1005.8 984.0
23 20.05 В 3 10 км 6/4 600 м
[Cu med, cong Ac trans]
+15.4 +14.6 95 +15 +15 1006.2 984.4
00 21.05 В 3 10 км 4/1 600 м
[Cu med, cong Ac trans]
+15.1 +14.3 95 +14 +14 1005.8 984.0
01 21.05 ЮВ 2 8000 м дымка 1/0
[Ac trans]
+14.6 +14.0 96 +14 +14 1005.3 983.5

 

Местоположение метеостанции Эльблонг (Польша): широта 54.17 долгота 19.43 высота над уровнем моря 43 м.

В архиве по умолчанию представлена погода в Эльблонге за последнюю неделю. Архивные данные за месяц целиком и за предыдущие месяцы, начиная с января 2011 года, Вы можете получить, выбрав интересующий диапазон дат из раскрывающегося списка и нажав кнопку "Ввод!".


*Определитесь, кто Вы:
робот инопланетянин человек

Внимание! Время в таблицах - всемирное. Для получения местного времени необходимо прибавить поправку, которая равна 1 ч.

Смотрите также архив погоды в соседних городах и на ближайших метеорологических станциях:

Погода в Мамоново (Калининградская область, Россия) (47 км)
Погода в Балтийске (Калининградская область, Россия) (61 км)
Погода в Хеле (Польша) (62 км)
Погода на Авиабазе Гдыня-Оксывье (Польша) (74 км)
Погода в Ольштыне (Польша) (79 км)
Погода в Рыбном Порту (Калининградская область, Россия) (88 км)
Погода в Калининграде (Калининградская область, Россия) (97 км)
Погода в Пионерском (Калининградская область, Россия) (100 км)
Погода в Лебунии (Польша) (111 км)
Погода в Лемборке (Польша) (117 км)

Пояснения к столбцам:

Ветер - указаны скорость ветра в м/с - средняя за 10 мин, порывы в срок и между сроками (в фигурных скобках) и направление, откуда дует ветер: С - северный, СВ - северо-восточный, В - восточный, ЮВ - юго-восточный, Ю - южный, ЮЗ - юго-западный, З - западный, СЗ - северо-западный.
Видимость - горизонтальная дальность видимости в метрах или километрах. При видимости от 1 до 10 км при отсутствии осадков обычно наблюдается дымка, при ухудшении видимости до 1 км и менее - туман. В сухую погоду видимость может ухудшаться дымом, пылью или мглою.
Явления - указаны атмосферные явления, наблюдавшиеся в срок или в последний час перед сроком; фигурными скобками обозначены явления, наблюдавшиеся между сроками (за 1-3 часа до срока); квадратными скобками обозначены град или гололедные отложения с указанием их диаметра в мм.
Облачность - указаны через наклонную черту общая и нижняя облачность в баллах и высота нижней границы облаков в метрах; квадратными скобками обозначены формы облаков: Ci - перистые, Cs - перисто-слоистые, Cc - перисто-кучевые, Ac - высококучевые, As - высокослоистые, Sc - слоисто-кучевые, Ns - слоисто-дождевые, Cu - кучевые, Cb - кучево-дождевые. Подробнее классификацию облаков см. в Атласе облаков (PDF).
T - Температура воздуха - температура, измеренная на высоте 2 м над землей.
Td - Температура точки росы - температура, при понижении до которой содержащийся в воздухе водяной пар достигнет насыщения.
f - Относительная влажность воздуха - влажноcть воздуха, измеренная на высоте 2 м над землей.
Te - Эффективная температура - температура, которую ощущает одетый по сезону человек в тени. Характеристика душности погоды. При расчете учитывается влияние влажности воздуха и скорости ветра на теплоощущения человека.
Tes - Эффективная температура на солнце - температура, которую ощущает человек, с поправкой на солнечный нагрев. Характеристика знойности погоды. Зависит от высоты солнца над горизонтом, облачности и скорости ветра. Ночью, в пасмурную погоду, а также при ветре 12 м/с и более поправка равна нулю.
P - Атмосферное давление - приведенное к уровню моря атмосферное давление.
Po - Атмосферное давление - измеренное на уровне метеостанции атмосферное давление.
Tmin - Минимальная температура - минимум температуры воздуха на высоте 2 м над землей.
Tmax - Максимальная температура - максимум температуры воздуха на высоте 2 м над землей.
R - Количество осадков - Количество выпавших осадков за период времени, мм. При наведении курсора мыши на число - период времени, за который выпало указанное количество осадков.
R24 - Количество осадков - Количество выпавших осадков за 24 часа, мм.
S - Снежный покров - Высота снежного покрова, см. При наведении курсора мыши на число - состояние снежного покрова и степень покрытия местности в баллах.